FW2664 Weather Reports


Display with metric or nautical units.
time (UTC)temp
F
wind
direction
speed
MPH
gust
MPH
rain 1hr
in
rain 24hr
in
rain mn
in
humidity
%
barometer
mb
20260902171129 97 132 0.0 3.0 0.00 0.00 0.00 42 1017.9
20260902170625 96 233 3.0 3.0 0.00 0.00 0.00 43 1017.9
20260902170120 97 280 2.0 2.0 0.00 0.00 0.00 43 1018.0
20260902165615 97 278 2.0 3.0 0.00 0.00 0.00 43 1018.1
20260902165115 96 242 0.0 3.0 0.00 0.00 0.00 43 1018.0
20260902164610 96 280 1.0 2.0 0.00 0.00 0.00 44 1018.2
20260902164109 96 223 2.0 2.0 0.00 0.00 0.00 43 1018.2
20260902163604 97 330 2.0 2.0 0.00 0.00 0.00 43 1018.4
20260902163102 98 276 2.0 3.0 0.00 0.00 0.00 47 1018.4
20260902162602 97 89 0.0 2.0 0.00 0.00 0.00 42 1018.4
20260902162057 96 279 0.0 2.0 0.00 0.00 0.00 42 1018.6
20260902161552 96 281 0.0 2.0 0.00 0.00 0.00 46 1018.6
20260902161048 96 34 0.0 3.0 0.00 0.00 0.00 47 1018.7
20260902160543 96 329 0.0 2.0 0.00 0.00 0.00 46 1018.8
20260902160038 95 255 0.0 2.0 0.00 0.00 0.00 52 1018.9
20260902155526 95 291 0.0 3.0 0.00 0.00 0.00 48 1018.5
20260902155025 96 194 0.0 2.0 0.00 0.00 0.00 49 1018.8
20260902154521 96 255 0.0 2.0 0.00 0.00 0.00 49 1018.7
20260902154015 96 296 2.0 2.0 0.00 0.00 0.00 49 1018.7
20260902153513 94 45 0.0 2.0 0.00 0.00 0.00 51 1018.6
20260902153010 94 219 2.0 3.0 0.00 0.00 0.00 52 1018.8
20260902152506 94 290 2.0 2.0 0.00 0.00 0.00 52 1018.8
20260902152001 95 241 1.0 2.0 0.00 0.00 0.00 54 1018.7
20260902151457 94 255 0.0 3.0 0.00 0.00 0.00 52 1018.7
20260902150956 95 217 0.0 2.0 0.00 0.00 0.00 54 1018.9
20260902150452 94 333 0.0 2.0 0.00 0.00 0.00 54 1018.7
20260902145952 94 306 2.0 2.0 0.00 0.00 0.00 54 1018.6
20260902145448 93 329 0.0 2.0 0.00 0.00 0.00 55 1018.8
20260902144947 91 284 0.0 2.0 0.00 0.00 0.00 59 1018.6
20260902144444 91 177 0.0 2.0 0.00 0.00 0.00 62 1018.8
20260902143944 90 251 0.0 2.0 0.00 0.00 0.00 63 1018.7
20260902143439 91 261 1.0 2.0 0.00 0.00 0.00 63 1018.7
20260902142934 92 216 1.0 2.0 0.00 0.00 0.00 61 1018.8
20260902142430 92 60 0.0 2.0 0.00 0.00 0.00 62 1018.8
20260902141926 92 31 1.0 2.0 0.00 0.00 0.00 62 1018.7
20260902141421 92 76 0.0 2.0 0.00 0.00 0.00 63 1018.7
20260902140920 92 116 0.0 2.0 0.00 0.00 0.00 62 1018.7
20260902140416 91 61 3.0 3.0 0.00 0.00 0.00 63 1018.5
20260902135915 90 72 1.0 3.0 0.00 0.00 0.00 63 1018.6
20260902135412 89 71 2.0 2.0 0.00 0.00 0.00 65 1018.8
20260902134910 89 97 1.0 2.0 0.00 0.00 0.00 64 1018.5
20260902134406 87 85 0.0 2.0 0.00 0.00 0.00 70 1018.5
20260902133901 85 15 0.0 2.0 0.00 0.00 0.00 72 1018.6
20260902133401 84 53 0.0 2.0 0.00 0.00 0.00 74 1018.7
20260902132856 84 308 0.0 2.0 0.00 0.00 0.00 72 1018.7
20260902132351 85 299 0.0 1.0 0.00 0.00 0.00 72 1018.5
20260902131846 88 10 0.0 2.0 0.00 0.00 0.00 66 1018.7
20260902131343 90 66 0.0 1.0 0.00 0.00 0.00 64 1018.5
20260902130842 88 45 0.0 2.0 0.00 0.00 0.00 66 1018.5
20260902130339 87 93 1.0 2.0 0.00 0.00 0.00 67 1018.5
20260902125839 86 123 2.0 2.0 0.00 0.00 0.00 69 1018.5
20260902125335 85 175 1.0 2.0 0.00 0.00 0.00 71 1018.5
20260902124831 83 76 1.0 2.0 0.00 0.00 0.00 75 1018.5
20260902124326 82 62 0.0 1.0 0.00 0.00 0.00 77 1018.6
20260902123821 82 56 1.0 2.0 0.00 0.00 0.00 76 1018.5
20260902123318 82 34 1.0 2.0 0.00 0.00 0.00 76 1018.6
20260902122816 80 78 1.0 2.0 0.00 0.00 0.00 81 1018.5
20260902122312 77 87 0.0 2.0 0.00 0.00 0.00 88 1018.4
20260902121812 75 43 1.0 2.0 0.00 0.00 0.00 91 1018.5
20260902121307 74 89 1.0 2.0 0.00 0.00 0.00 93 1018.3
20260902120802 74 88 0.0 2.0 0.00 0.00 0.00 94 1018.3
20260902120259 73 79 0.0 2.0 0.00 0.00 0.00 94 1018.3
20260902115753 73 79 1.0 2.0 0.00 0.00 0.00 94 1018.2
20260902115250 73 77 1.0 2.0 0.00 0.00 0.00 95 1018.1
20260902114746 72 59 1.0 2.0 0.00 0.00 0.00 95 1018.1
20260902114242 72 72 2.0 2.0 0.00 0.00 0.00 95 1018.2
20260902113742 72 81 2.0 2.0 0.00 0.00 0.00 95 1018.2
20260902113237 72 52 1.0 2.0 0.00 0.00 0.00 95 1018.1
20260902112736 72 68 0.0 2.0 0.00 0.00 0.00 95 1018.0
20260902112234 72 59 2.0 2.0 0.00 0.00 0.00 95 1017.9
20260902111729 72 81 2.0 2.0 0.00 0.00 0.00 95 1017.6
20260902111225 72 79 2.0 2.0 0.00 0.00 0.00 94 1017.6
20260902110720 72 72 1.0 2.0 0.00 0.00 0.00 94 1017.6
20260902110216 72 89 1.0 2.0 0.00 0.00 0.00 94 1017.6
20260902105715 72 69 1.0 2.0 0.00 0.00 0.00 94 1017.6
20260902105211 72 61 2.0 2.0 0.00 0.00 0.00 94 1017.5
20260902104706 72 74 1.0 2.0 0.00 0.00 0.00 94 1017.8
20260902104202 73 70 0.0 2.0 0.00 0.00 0.00 94 1017.5
20260902103701 73 59 2.0 2.0 0.00 0.00 0.00 94 1017.5
20260902103156 73 37 0.0 2.0 0.00 0.00 0.00 94 1017.3
20260902102652 73 74 2.0 2.0 0.00 0.00 0.00 94 1017.3
20260902102150 73 77 2.0 2.0 0.00 0.00 0.00 94 1017.1
20260902101644 73 73 2.0 2.0 0.00 0.00 0.00 94 1017.1
20260902101144 73 64 0.0 2.0 0.00 0.00 0.00 94 1017.1
20260902100639 73 60 1.0 2.0 0.00 0.00 0.00 94 1017.3
20260902100134 73 82 0.0 2.0 0.00 0.00 0.00 94 1017.1
20260902095632 73 68 0.0 2.0 0.00 0.00 0.00 94 1017.0
20260902095132 73 73 1.0 2.0 0.00 0.00 0.00 94 1017.0
20260902094628 73 74 0.0 3.0 0.00 0.00 0.00 94 1016.7
20260902094124 73 51 2.0 2.0 0.00 0.00 0.00 95 1016.9
20260902093623 74 82 2.0 2.0 0.00 0.00 0.00 95 1016.8
20260902093118 73 58 1.0 2.0 0.00 0.00 0.00 95 1016.8
20260902092618 73 68 2.0 2.0 0.00 0.00 0.00 95 1016.7
20260902092114 73 74 1.0 2.0 0.00 0.00 0.00 95 1016.9
20260902091609 73 74 1.0 2.0 0.00 0.00 0.00 95 1016.7
20260902091105 73 73 2.0 2.0 0.00 0.00 0.00 95 1016.6
20260902090601 74 80 0.0 2.0 0.00 0.00 0.00 95 1016.7
20260902090059 74 98 1.0 2.0 0.00 0.00 0.00 95 1016.5
20260902085554 74 57 1.0 2.0 0.00 0.00 0.00 95 1016.7
20260902085049 74 84 1.0 2.0 0.00 0.00 0.00 95 1016.6
20260902084545 74 84 2.0 2.0 0.00 0.00 0.00 94 1016.5
20260902084041 74 89 0.0 1.0 0.00 0.00 0.00 95 1016.5
20260902083536 74 35 0.0 2.0 0.00 0.00 0.00 94 1016.3
20260902083036 74 84 1.0 2.0 0.00 0.00 0.00 94 1016.3
20260902082532 74 94 1.0 2.0 0.00 0.00 0.00 94 1016.4
20260902082028 74 66 0.0 2.0 0.00 0.00 0.00 94 1016.5
20260902081524 74 69 1.0 2.0 0.00 0.00 0.00 93 1016.4
20260902081024 75 80 1.0 2.0 0.00 0.00 0.00 93 1016.2
20260902080519 75 85 1.0 2.0 0.00 0.00 0.00 93 1016.3
20260902080016 75 72 0.0 2.0 0.00 0.00 0.00 93 1016.2
20260902075505 75 74 0.0 2.0 0.00 0.00 0.00 93 1016.2
20260902075001 75 87 1.0 2.0 0.00 0.00 0.00 93 1016.2
20260902074456 75 75 1.0 2.0 0.00 0.00 0.00 92 1016.2
20260902073955 75 74 1.0 2.0 0.00 0.00 0.00 92 1016.1
20260902073452 75 80 1.0 2.0 0.00 0.00 0.00 92 1016.2
20260902072948 75 69 1.0 2.0 0.00 0.00 0.00 92 1016.2
20260902072443 75 96 1.0 2.0 0.00 0.00 0.00 92 1016.2
20260902071939 76 72 2.0 2.0 0.00 0.00 0.00 92 1016.3
20260902071439 76 89 1.0 2.0 0.00 0.00 0.00 92 1016.2
20260902070936 76 47 2.0 3.0 0.00 0.00 0.00 93 1016.3
20260902070431 75 79 0.0 2.0 0.00 0.00 0.00 93 1016.4
20260902065930 75 73 2.0 2.0 0.00 0.00 0.00 93 1016.3
20260902065425 75 44 0.0 2.0 0.00 0.00 0.00 93 1016.1
20260902064921 76 69 1.0 2.0 0.00 0.00 0.00 93 1016.2
20260902064416 76 66 2.0 2.0 0.00 0.00 0.00 92 1016.2
20260902063911 76 82 0.0 2.0 0.00 0.00 0.00 92 1016.3
20260902063411 76 89 0.0 2.0 0.00 0.00 0.00 91 1016.3
20260902062906 76 71 1.0 2.0 0.00 0.00 0.00 92 1016.2
20260902062405 76 74 1.0 1.0 0.00 0.00 0.00 92 1016.3
20260902061905 76 54 0.0 2.0 0.00 0.00 0.00 91 1016.3
20260902061400 76 79 1.0 2.0 0.00 0.00 0.00 91 1016.2
20260902060856 76 56 2.0 2.0 0.00 0.00 0.00 92 1016.2
20260902060351 77 67 2.0 2.0 0.00 0.00 0.00 91 1016.2
20260902055848 77 77 0.0 2.0 0.00 0.00 0.00 91 1016.3
20260902055343 77 46 0.0 2.0 0.00 0.00 0.00 90 1016.4
20260902054838 77 58 1.0 2.0 0.00 0.00 0.00 90 1016.2
20260902054334 77 97 1.0 2.0 0.00 0.00 0.00 90 1016.5
20260902053829 77 88 2.0 2.0 0.00 0.00 0.00 90 1016.4
20260902053325 77 61 1.0 2.0 0.00 0.00 0.00 90 1016.4
20260902052823 77 66 2.0 2.0 0.00 0.00 0.00 91 1016.3
20260902052319 77 71 0.0 2.0 0.00 0.00 0.00 90 1016.4
20260902051814 77 56 1.0 3.0 0.00 0.00 0.00 90 1016.4
20260902051313 77 78 1.0 2.0 0.00 0.00 0.00 90 1016.4
20260902050809 77 60 1.0 2.0 0.00 0.00 0.00 90 1016.2
20260902050308 78 53 1.0 2.0 0.00 0.00 0.00 89 1016.4
20260902045809 78 48 1.0 3.0 0.00 0.00 0.00 89 1016.3
20260902045306 78 64 1.0 2.0 0.00 0.00 0.00 89 1016.3
20260902044801 78 48 1.0 2.0 0.00 0.00 0.00 88 1016.3
20260902044256 78 68 0.0 2.0 0.00 0.00 0.00 88 1016.3
20260902043750 78 82 1.0 2.0 0.00 0.00 0.00 87 1016.2
20260902043246 78 44 0.0 2.0 0.00 0.00 0.00 88 1016.3
20260902042745 78 66 0.0 3.0 0.00 0.00 0.00 87 1016.3
20260902042240 78 94 2.0 2.0 0.00 0.00 0.00 86 1016.4
20260902041736 78 75 1.0 2.0 0.00 0.00 0.00 86 1016.4
20260902041235 78 53 2.0 2.0 0.00 0.00 0.00 86 1016.4
20260902040735 78 56 1.0 2.0 0.00 0.00 0.00 85 1016.3
20260902040230 79 65 0.0 2.0 0.00 0.00 0.00 85 1016.4
20260902035728 79 75 1.0 2.0 0.00 0.00 0.00 85 1016.2
20260902035225 79 88 0.0 2.0 0.00 0.00 0.00 84 1016.2
20260902034723 79 68 1.0 2.0 0.00 0.00 0.00 84 1016.3
20260902034218 79 69 2.0 2.0 0.00 0.00 0.00 83 1016.1
20260902033716 80 89 0.0 2.0 0.00 0.00 0.00 82 1016.3
20260902033212 80 72 1.0 2.0 0.00 0.00 0.00 81 1016.4
20260902032710 80 70 0.0 2.0 0.00 0.00 0.00 81 1016.3
20260902032206 80 53 0.0 2.0 0.00 0.00 0.00 81 1016.5
20260902031705 80 102 1.0 2.0 0.00 0.00 0.00 81 1016.4
20260902031201 80 28 0.0 2.0 0.00 0.00 0.00 81 1016.5
20260902030657 80 64 1.0 2.0 0.00 0.00 0.00 81 1016.5
20260902030156 80 76 1.0 2.0 0.00 0.00 0.00 81 1016.5
20260902025655 80 81 2.0 2.0 0.00 0.00 0.00 80 1016.6
20260902025151 80 65 1.0 2.0 0.00 0.00 0.00 80 1016.6
20260902024646 80 48 0.0 2.0 0.00 0.00 0.00 80 1016.5
20260902024141 80 91 0.0 2.0 0.00 0.00 0.00 79 1016.6
20260902023637 81 47 1.0 2.0 0.00 0.00 0.00 78 1016.5
20260902023137 81 89 0.0 1.0 0.00 0.00 0.00 79 1016.5
20260902022637 81 52 0.0 1.0 0.00 0.00 0.00 78 1016.5
20260902022133 81 61 1.0 2.0 0.00 0.00 0.00 77 1016.4
20260902021628 81 84 2.0 2.0 0.00 0.00 0.00 77 1016.5
20260902021128 81 95 0.0 1.0 0.00 0.00 0.00 77 1016.2
20260902020624 81 76 0.0 2.0 0.00 0.00 0.00 76 1016.2
20260902020120 81 88 0.0 2.0 0.00 0.00 0.00 75 1016.1
20260902015615 81 89 0.0 2.0 0.00 0.00 0.00 75 1016.4
20260902015112 81 72 0.0 1.0 0.00 0.00 0.00 74 1015.9
20260902014607 82 84 0.0 2.0 0.00 0.00 0.00 74 1016.2
20260902014102 82 66 0.0 2.0 0.00 0.00 0.00 73 1016.0
20260902013601 82 82 0.0 2.0 0.00 0.00 0.00 71 1016.1
20260902013057 82 94 1.0 2.0 0.00 0.00 0.00 71 1015.9
20260902012553 82 48 0.0 1.0 0.00 0.00 0.00 70 1016.1
20260902012048 83 130 0.0 2.0 0.00 0.00 0.00 69 1015.8
20260902011543 83 73 0.0 2.0 0.00 0.00 0.00 69 1015.8
20260902011043 83 57 0.0 2.0 0.00 0.00 0.00 67 1015.7
20260902010542 84 60 1.0 2.0 0.00 0.00 0.00 67 1015.6
20260902010038 84 75 0.0 2.0 0.00 0.00 0.00 66 1015.6
20260902005536 84 71 0.0 2.0 0.00 0.00 0.00 65 1015.5
20260902005033 85 80 1.0 2.0 0.00 0.00 0.00 64 1015.7
20260902004532 85 81 0.0 2.0 0.00 0.00 0.00 64 1015.6
20260902004027 85 43 0.0 2.0 0.00 0.00 0.00 64 1015.5
20260902003523 86 68 1.0 2.0 0.00 0.00 0.00 63 1015.6
20260902003018 86 67 1.0 2.0 0.00 0.00 0.00 62 1015.7
20260902002514 87 96 1.0 2.0 0.00 0.00 0.00 61 1015.6
20260902002008 87 77 0.0 1.0 0.00 0.00 0.00 61 1015.5
20260902001503 88 61 0.0 2.0 0.00 0.00 0.00 60 1015.6
20260902000958 88 64 0.0 2.0 0.00 0.00 0.00 58 1015.6
20260902000453 89 92 0.0 2.0 0.00 0.00 0.00 57 1015.5
20260901235947 89 66 0.0 2.0 0.00 0.00 0.00 56 1015.5
20260901235443 90 89 0.0 2.0 0.00 0.00 0.00 55 1015.5
20260901234938 90 65 0.0 2.0 0.00 0.00 0.00 54 1015.4
20260901234431 91 71 0.0 2.0 0.00 0.00 0.00 53 1015.6
20260901233926 91 42 0.0 2.0 0.00 0.00 0.00 51 1015.5
20260901233421 92 78 1.0 2.0 0.00 0.00 0.00 49 1015.5
20260901232919 93 343 0.0 2.0 0.00 0.00 0.00 49 1015.5
20260901232418 93 89 0.0 2.0 0.00 0.00 0.00 48 1015.6
20260901231914 93 94 1.0 2.0 0.00 0.00 0.00 46 1015.5
20260901231409 94 77 0.0 2.0 0.00 0.00 0.00 47 1015.7
20260901230906 94 107 0.0 2.0 0.00 0.00 0.00 45 1015.7
20260901230405 94 7 1.0 2.0 0.00 0.00 0.00 46 1015.6
20260901225901 94 101 0.0 2.0 0.00 0.00 0.00 44 1015.5
20260901225401 95 74 1.0 1.0 0.00 0.00 0.00 45 1015.6
20260901224855 95 290 0.0 1.0 0.00 0.00 0.00 45 1015.6
20260901224352 95 82 0.0 1.0 0.00 0.00 0.00 44 1015.8
20260901223848 95 139 0.0 2.0 0.00 0.00 0.00 43 1015.8
20260901223343 96 49 0.0 2.0 0.00 0.00 0.00 44 1015.5
20260901222838 97 115 1.0 2.0 0.00 0.00 0.00 41 1015.5
20260901222335 99 146 3.0 3.0 0.00 0.00 0.00 38 1015.5
20260901221830 102 107 2.0 2.0 0.00 0.00 0.00 37 1015.6
20260901221326 102 203 0.0 2.0 0.00 0.00 0.00 37 1015.6
20260901220825 101 66 0.0 3.0 0.00 0.00 0.00 38 1015.6
20260901220324 99 310 0.0 2.0 0.00 0.00 0.00 38 1015.7
20260901215823 100 249 1.0 2.0 0.00 0.00 0.00 38 1015.8
20260901215323 100 29 0.0 1.0 0.00 0.00 0.00 39 1015.9
20260901214821 100 82 0.0 2.0 0.00 0.00 0.00 40 1015.6
20260901214320 101 39 1.0 2.0 0.00 0.00 0.00 37 1015.9
20260901213815 101 26 1.0 1.0 0.00 0.00 0.00 39 1015.7
20260901213315 100 43 0.0 2.0 0.00 0.00 0.00 39 1015.8
20260901212810 100 281 0.0 2.0 0.00 0.00 0.00 37 1015.9
20260901212306 99 101 0.0 3.0 0.00 0.00 0.00 39 1015.8
20260901211801 99 161 1.0 4.0 0.00 0.00 0.00 38 1015.8
20260901211257 99 304 1.0 3.0 0.00 0.00 0.00 38 1015.8
20260901210753 99 235 2.0 4.0 0.00 0.00 0.00 38 1015.9
20260901210248 98 231 1.0 2.0 0.00 0.00 0.00 39 1015.9
20260901205744 99 268 0.0 2.0 0.00 0.00 0.00 38 1016.0
20260901205244 100 151 0.0 4.0 0.00 0.00 0.00 38 1016.0
20260901204740 100 159 1.0 2.0 0.00 0.00 0.00 38 1016.0
20260901204235 98 277 0.0 3.0 0.00 0.00 0.00 39 1016.1
20260901203730 98 332 2.0 4.0 0.00 0.00 0.00 39 1016.2
20260901203230 100 325 2.0 3.0 0.00 0.00 0.00 36 1016.1
20260901202729 100 50 0.0 2.0 0.00 0.00 0.00 39 1016.2
20260901202225 98 269 0.0 3.0 0.00 0.00 0.00 41 1016.4
20260901201721 99 145 2.0 3.0 0.00 0.00 0.00 38 1016.5
20260901201220 98 318 2.0 4.0 0.00 0.00 0.00 40 1016.5
20260901200720 98 152 2.0 4.0 0.00 0.00 0.00 39 1016.4
20260901200215 96 234 2.0 2.0 0.00 0.00 0.00 41 1016.4
20260901195714 97 166 1.0 4.0 0.00 0.00 0.00 40 1016.6
20260901195208 98 165 2.0 5.0 0.00 0.00 0.00 38 1016.5
20260901194704 99 229 0.0 3.0 0.00 0.00 0.00 38 1016.6
20260901194158 100 142 3.0 3.0 0.00 0.00 0.00 37 1016.6
20260901193654 99 237 3.0 3.0 0.00 0.00 0.00 39 1016.6
20260901193148 99 117 0.0 1.0 0.00 0.00 0.00 37 1016.7
20260901192642 99 254 0.0 1.0 0.00 0.00 0.00 39 1016.9
20260901192138 98 338 0.0 2.0 0.00 0.00 0.00 38 1016.8
20260901191634 98 283 2.0 2.0 0.00 0.00 0.00 39 1017.1
20260901191130 98 243 1.0 5.0 0.00 0.00 0.00 39 1017.1
20260901190626 96 156 0.0 2.0 0.00 0.00 0.00 41 1017.1
20260901190125 95 139 1.0 2.0 0.00 0.00 0.00 43 1017.1
20260901185623 97 264 2.0 3.0 0.00 0.00 0.00 43 1017.1
20260901185122 97 298 1.0 3.0 0.00 0.00 0.00 45 1017.0
20260901184618 97 246 0.0 4.0 0.00 0.00 0.00 44 1017.2
20260901184113 97 275 2.0 4.0 0.00 0.00 0.00 43 1017.3
20260901183608 97 331 3.0 3.0 0.00 0.00 0.00 42 1017.2
20260901183103 97 53 0.0 3.0 0.00 0.00 0.00 45 1017.4
20260901182559 97 272 3.0 4.0 0.00 0.00 0.00 44 1017.8
20260901182059 96 302 2.0 3.0 0.00 0.00 0.00 47 1017.5
20260901181559 96 110 1.0 2.0 0.00 0.00 0.00 45 1017.4
20260901181058 96 319 0.0 3.0 0.00 0.00 0.00 44 1017.8
20260901180557 96 265 3.0 6.0 0.00 0.00 0.00 44 1017.5
20260901180052 96 24 1.0 3.0 0.00 0.00 0.00 47 1017.8
20260901175551 97 106 2.0 2.0 0.00 0.00 0.00 45 1017.6
20260901175051 97 310 1.0 2.0 0.00 0.00 0.00 46 1017.8
20260901174547 96 300 0.0 2.0 0.00 0.00 0.00 47 1017.8
20260901174043 96 328 2.0 3.0 0.00 0.00 0.00 46 1018.1
20260901173538 96 60 0.0 2.0 0.00 0.00 0.00 45 1018.1
20260901173034 97 209 0.0 4.0 0.00 0.00 0.00 47 1017.9
20260901172529 97 304 0.0 2.0 0.00 0.00 0.00 45 1018.1
20260901172027 97 258 2.0 2.0 0.00 0.00 0.00 44 1018.3
20260901171526 96 269 0.0 3.0 0.00 0.00 0.00 47 1018.5